Theta_e
342 340 341 341 343 344 344 344 345 346 346 347 347 347 344 334 334 335 338 351 359 359 359 361 362 363 364 365 364 363 363 362 362 363 364 364 363 362 361 361 358 359 358
340 343 340 340 342 343 343 343 343 342 341 338 334 340 340 334 335 335 336 339 352 362 360 360 361 362 363 363 362 364 363 364 363 365 364 362 363 362 360 361 359 357 357
345 342 341 338 342 346 345 343 342 342 343 337 332 333 335 333 335 335 339 339 342 349 352 357 365 365 364 360 363 364 364 364 365 364 364 363 363 363 362 360 358 357 356
346 342 344 346 346 344 345 344 342 340 335 333 331 333 333 335 337 337 338 340 343 345 347 348 352 362 363 362 361 365 365 364 364 363 362 361 362 360 360 359 357 356 355
346 342 339 342 342 339 339 340 341 342 339 335 332 334 334 337 337 340 341 342 347 348 349 352 359 360 361 360 363 363 363 364 364 362 360 359 359 360 359 358 356 355 352
345 338 338 339 339 337 340 341 342 342 335 334 338 336 336 334 333 335 337 341 345 348 350 350 350 354 358 359 357 363 361 362 361 362 360 357 358 360 358 357 355 353 352
345 343 335 334 335 338 339 341 344 344 341 339 333 333 333 333 331 333 335 337 343 346 349 352 351 349 350 347 358 359 359 360 362 363 358 357 361 358 357 355 354 353 352
341 343 335 330 332 337 338 341 337 341 336 340 337 333 327 330 329 332 334 337 338 343 351 353 352 350 348 344 355 356 356 359 360 362 361 360 358 356 355 354 354 353 352
344 347 339 331 331 337 337 339 335 334 334 341 341 335 326 324 323 331 332 337 336 338 341 350 352 350 347 350 349 349 353 355 358 358 359 358 357 355 354 353 352 351 352
348 347 344 340 336 336 336 343 333 333 339 338 339 334 331 328 324 320 327 335 338 336 336 342 342 345 350 348 348 349 350 352 355 355 357 355 355 355 354 352 351 351 351
348 349 345 342 337 333 333 340 343 341 340 337 341 335 331 331 330 324 319 325 336 337 336 337 339 348 349 344 341 346 347 348 350 350 351 353 355 355 354 353 352 351 351
343 347 346 342 340 333 334 333 341 345 339 329 340 344 336 334 333 328 323 327 328 333 338 338 338 342 346 343 347 346 344 343 343 345 346 348 349 350 350 349 349 349 348
340 342 346 343 341 340 339 338 345 346 346 344 344 344 346 344 338 335 334 330 329 332 334 334 336 341 346 340 340 341 341 339 339 340 341 341 341 342 341 342 342 343 343
341 342 346 346 345 346 347 346 347 346 347 346 345 344 345 345 344 341 337 333 329 331 331 331 334 342 339 337 338 338 334 336 335 336 336 337 336 336 336 336 335 336 338
343 343 344 346 347 347 347 345 344 344 345 344 344 345 342 345 345 343 341 338 335 326 327 331 333 336 337 335 337 330 329 333 333 332 332 332 332 332 332 331 331 331 332
344 344 345 345 347 347 347 346 343 343 342 344 344 345 342 341 344 342 340 338 338 333 327 333 334 339 338 334 334 329 330 331 331 330 328 328 328 327 326 326 326 327 328
345 345 346 346 346 346 346 345 346 345 344 343 344 344 343 342 343 343 341 340 340 336 332 335 342 338 332 331 331 328 327 325 326 327 326 325 323 323 322 321 321 322 323
345 346 345 342 343 346 344 346 345 347 344 344 343 341 341 345 343 343 343 340 341 340 335 331 337 337 332 328 327 323 326 325 324 325 324 323 321 319 317 317 316 317 319
342 345 344 343 342 343 344 343 343 344 345 344 344 344 343 343 342 342 341 342 341 343 339 335 335 338 335 326 323 323 318 318 322 323 321 319 318 317 314 314 313 313 314
341 341 346 345 344 343 343 345 346 345 346 347 347 348 347 345 343 343 342 341 341 340 339 338 336 335 336 329 324 319 315 316 316 317 316 316 315 314 314 314 312 312 312
344 344 344 346 345 346 347 345 347 347 345 346 347 348 348 348 345 343 345 342 339 339 338 337 335 334 333 333 327 321 316 315 313 317 313 314 314 311 311 312 313 312 312
345 345 345 346 346 349 341 340 345 346 347 346 345 343 347 347 343 338 337 338 341 339 336 336 335 335 335 336 336 329 321 314 312 317 313 314 313 307 307 305 311 313 313
341 343 344 343 345 345 335 335 338 344 344 343 343 345 346 350 342 341 334 329 327 327 333 337 336 335 334 335 335 336 329 322 320 317 312 310 309 304 306 309 314 313 313
341 342 343 343 343 342 331 330 334 342 341 342 343 344 343 344 342 339 332 325 320 319 321 327 325 317 316 316 321 332 335 330 319 317 319 310 308 305 306 309 313 313 312
338 338 340 341 340 337 322 325 332 339 340 340 341 335 332 340 333 329 334 320 314 310 316 316 316 316 316 318 319 324 325 323 318 314 317 313 307 305 305 306 309 313 311
335 338 335 334 328 327 320 321 328 335 336 335 326 323 321 321 321 322 333 321 314 309 309 307 307 308 311 312 316 313 314 322 313 310 313 314 311 311 307 310 309 310 309
Wind_Speed
3 2 3 0 1 3 3 4 3 4 5 5 4 5 5 5 5 3 2 9 9 9 9 10 9 10 11 11 9 9 7 7 6 6 7 6 7 8 7 6 5 5 6
2 3 1 0 2 2 4 3 3 2 4 3 3 5 6 5 5 4 0 2 10 10 10 11 11 10 10 10 8 6 6 6 9 7 7 7 8 8 6 5 5 5 5
2 2 3 1 1 2 3 2 1 1 2 2 1 3 4 5 3 2 1 3 5 7 7 9 10 9 8 6 6 5 6 6 7 8 6 6 7 7 4 2 3 5 6
4 2 3 2 2 3 3 3 2 2 2 3 1 1 3 5 2 2 2 3 4 3 5 2 3 6 7 2 3 6 6 5 6 8 9 8 7 6 4 3 5 5 6
5 4 3 3 3 2 2 2 2 1 1 1 2 3 3 3 3 3 3 3 2 1 3 5 3 4 4 7 8 8 6 7 8 10 9 8 7 4 4 5 6 6 6
5 5 3 3 2 1 1 2 4 1 1 0 2 4 3 3 3 3 3 3 1 3 0 5 3 3 6 6 7 8 9 9 10 10 9 5 5 6 7 7 8 8 6
5 5 4 3 0 2 2 2 2 2 4 2 3 3 4 2 4 3 3 4 5 3 4 2 4 4 2 8 8 10 8 8 9 9 7 6 8 9 9 8 7 7 8
4 3 5 3 3 1 2 3 4 1 2 3 2 3 1 3 2 1 2 3 4 2 3 2 2 4 4 3 6 10 10 12 9 9 11 11 12 11 10 8 8 8 9
5 4 5 4 4 1 1 1 3 4 2 4 4 4 2 4 1 2 3 3 5 3 3 3 4 3 5 3 5 6 11 10 8 7 11 11 11 10 9 7 7 7 8
5 4 4 4 4 1 2 2 3 3 3 1 1 4 4 3 3 3 1 3 2 3 4 2 1 3 4 4 5 9 7 7 7 6 9 9 9 9 8 8 8 8 9
4 5 5 5 4 3 3 2 2 3 2 2 1 1 2 3 2 2 2 3 1 3 1 1 0 4 3 4 2 6 5 6 6 6 6 8 10 9 9 9 8 9 9
4 5 5 5 4 4 5 4 1 3 3 2 1 1 2 2 2 2 1 3 2 3 1 2 1 3 3 3 5 7 6 5 4 5 5 7 9 10 10 11 11 11 12
3 6 6 6 4 5 5 4 3 3 3 2 2 1 2 1 2 2 2 0 1 3 3 2 2 1 3 3 3 6 6 5 5 5 5 8 10 11 11 11 12 12 12
4 5 5 6 6 6 6 4 2 2 3 2 3 3 2 2 2 2 3 3 2 2 2 4 1 2 3 3 4 6 3 5 5 6 5 8 10 11 11 11 12 13 13
3 5 6 6 7 6 6 5 3 3 2 2 3 3 3 2 3 2 3 3 5 1 3 3 1 1 3 3 4 3 3 5 6 5 5 8 9 10 9 10 10 11 11
5 6 6 6 6 6 6 5 3 3 3 4 3 3 3 2 2 3 3 2 2 4 2 3 3 3 3 3 4 3 4 5 6 4 4 6 8 8 8 9 9 10 11
5 6 6 6 7 6 5 4 5 5 5 5 3 4 5 2 2 3 2 2 2 3 3 2 1 2 2 5 3 3 3 3 3 3 3 5 7 7 7 8 8 9 10
5 6 6 6 6 6 5 6 6 6 7 6 6 4 6 3 4 3 2 3 3 3 3 3 2 2 2 3 3 3 3 3 3 4 4 4 6 7 7 8 8 8 9
7 6 5 6 6 7 6 6 6 6 6 6 6 6 7 4 4 3 3 4 3 2 3 3 3 1 2 3 3 2 2 2 2 5 4 3 5 5 6 7 8 8 8
7 7 7 7 7 6 6 6 6 6 6 6 6 6 6 6 6 6 5 6 4 4 3 3 3 3 2 3 3 3 3 2 3 4 3 3 3 4 5 5 7 9 9
8 7 8 8 7 6 6 7 7 7 7 6 6 6 6 7 9 7 3 3 4 4 3 4 3 2 3 3 7 4 3 3 4 3 3 3 2 1 2 4 4 6 7
9 9 8 8 8 7 10 13 9 6 6 6 7 6 6 7 7 7 6 4 6 5 4 4 3 4 4 4 4 5 4 4 3 5 4 3 4 2 2 2 5 5 6
6 8 9 8 9 8 11 12 12 6 5 6 6 6 4 4 6 5 5 7 5 4 1 3 4 4 2 2 2 6 8 5 4 4 5 4 4 3 2 1 4 4 4
8 8 9 9 8 5 7 9 6 6 5 5 5 6 6 6 6 7 6 4 1 4 4 1 1 3 1 3 4 1 2 3 3 3 4 4 5 2 2 2 2 3 5
4 5 5 6 7 5 1 6 7 5 5 5 3 1 3 5 5 7 7 6 4 3 7 12 12 10 10 10 3 3 3 3 1 1 1 1 4 3 3 1 1 5 3
3 3 4 5 6 5 5 6 5 0 3 3 2 2 4 3 2 5 6 7 6 5 5 4 4 6 7 8 14 6 2 2 2 3 3 1 5 4 2 3 3 3 4
Wind_Direction
215 223 239 3 317 281 263 281 306 289 279 279 235 211 224 204 206 218 250 272 268 267 277 287 292 296 298 300 312 318 336 332 324 313 308 305 297 287 284 289 310 332 329
210 266 229 273 286 259 237 235 250 238 271 283 305 196 199 195 204 220 53 291 295 290 290 291 292 295 297 300 302 324 339 349 331 326 328 337 323 306 299 320 345 349 357
162 176 127 166 76 354 231 134 168 23 262 320 313 120 174 195 222 358 322 247 268 282 303 304 306 298 296 302 316 0 351 359 355 347 354 2 356 352 352 356 35 22 18
144 123 105 83 51 54 26 48 32 1 107 127 330 91 49 46 348 238 253 283 254 249 291 287 320 304 306 321 13 16 5 2 15 349 346 354 2 11 28 59 57 45 28
166 134 136 111 71 60 59 55 43 41 313 286 148 94 95 103 80 63 47 17 334 323 232 183 158 94 21 15 18 3 11 22 10 355 343 354 358 32 78 80 78 57 36
152 122 97 86 123 170 64 71 61 357 176 219 47 68 110 100 72 59 28 323 359 341 3 144 113 86 68 30 18 14 20 20 12 350 343 4 23 74 85 77 64 53 37
160 148 121 106 152 94 13 77 77 18 31 43 94 54 54 49 55 53 17 323 326 335 306 139 140 90 65 28 32 24 1 24 19 11 23 45 66 78 74 61 52 42 27
173 169 121 140 150 98 20 67 82 49 7 18 122 82 72 315 332 51 29 309 305 347 320 318 68 91 66 33 39 27 22 8 17 44 60 66 69 70 65 54 42 30 26
195 174 149 161 174 214 133 83 132 140 111 22 42 149 95 233 346 298 225 281 299 6 4 8 73 60 38 48 38 33 31 0 9 47 81 83 84 78 69 53 42 31 23
197 197 170 162 185 187 190 165 209 131 114 133 30 46 50 129 169 346 239 248 305 291 348 340 73 31 55 72 60 59 36 17 16 35 52 71 70 66 61 57 49 35 33
216 199 187 169 197 173 220 220 168 89 97 109 104 114 33 45 80 114 296 321 351 272 202 45 237 85 87 112 84 66 54 44 31 46 52 63 64 66 69 66 60 47 38
205 210 175 200 205 194 203 238 207 164 128 140 161 168 179 166 195 156 169 265 260 267 266 258 170 113 130 90 76 74 63 69 80 70 82 83 74 63 57 54 50 46 43
203 214 186 201 203 212 211 216 213 189 152 173 167 207 211 173 149 166 136 286 339 316 332 345 323 187 117 88 84 82 79 94 97 92 76 86 81 73 67 62 57 52 49
205 187 203 202 206 209 201 205 226 217 185 192 208 217 198 196 181 175 161 140 345 324 321 260 352 114 126 113 121 103 106 109 93 73 78 79 80 78 74 68 62 56 54
209 210 203 203 207 217 203 197 206 233 245 262 234 212 208 222 188 193 203 168 151 229 279 291 236 173 141 124 122 112 108 104 93 88 80 82 80 79 79 78 77 73 64
208 207 218 214 213 212 201 193 206 223 217 255 244 235 216 203 177 190 201 204 213 164 222 218 232 137 135 110 125 128 123 107 101 100 94 91 96 91 85 79 73 71 68
222 215 219 220 209 206 212 209 229 224 219 237 255 226 242 245 237 224 218 201 202 176 177 272 152 101 113 141 143 116 124 123 110 100 94 91 86 87 87 80 76 74 77
224 217 199 205 201 207 211 213 226 212 218 228 239 236 249 226 251 227 200 227 226 198 159 235 188 144 147 144 152 150 183 125 114 108 90 84 87 85 81 78 73 74 75
207 209 209 204 212 206 212 210 217 222 220 226 233 227 244 230 252 249 237 231 234 231 209 176 232 146 127 155 143 162 166 126 129 128 114 107 98 95 88 85 86 79 71
202 208 209 215 208 208 211 218 214 224 230 226 230 232 240 237 240 250 246 240 209 220 211 219 207 191 157 143 127 159 185 175 164 184 155 145 143 131 118 109 108 99 86
212 211 218 218 211 209 218 214 212 216 222 234 235 237 239 236 227 231 226 244 202 216 211 225 224 185 182 146 201 176 165 141 214 174 166 176 183 178 142 142 131 115 103
206 205 214 218 226 223 214 215 204 209 215 220 239 242 229 235 234 226 245 260 209 201 217 215 229 218 223 205 169 176 145 146 227 186 149 191 172 213 200 167 168 159 158
217 207 216 212 224 226 221 217 207 218 211 223 237 239 241 225 206 195 142 128 91 48 280 217 231 216 234 223 169 197 189 186 203 155 129 173 175 193 179 174 155 139 161
215 214 214 212 216 226 233 240 215 217 213 229 242 231 222 225 210 179 168 170 87 16 334 4 85 70 12 289 238 270 227 184 71 123 171 170 168 162 143 136 249 94 91
192 217 217 208 199 180 143 182 174 191 209 227 244 8 319 268 219 201 171 164 128 82 66 84 91 78 53 33 339 178 187 154 136 124 3 127 165 112 110 85 94 9 21
247 144 78 56 65 82 37 6 304 157 199 194 161 144 56 8 299 215 194 171 172 181 147 118 72 47 37 31 38 46 147 161 114 110 18 261 119 109 74 79 10 0 301